Ardmore, OK

3:11 PM CDT on May 23, 2017 (GMT -0500)
Ardmore Municipal

Weather History for KADM - February, 2014

Change the Weather History Date:

Thursday, February 20, 2014

  Actual Average Record
Temperature  
Mean Temperature 52 °F -  
Max Temperature 68 °F 55 °F 80 °F (2005)
Min Temperature 34 °F 37 °F 30 °F (2006)
Degree Days  
Heating Degree Days 13    
Growing Degree Days 2 (Base 50)    
Moisture  
Dew Point 46 °F    
Average Humidity 65    
Maximum Humidity 87    
Minimum Humidity 36    
Precipitation  
Precipitation 0.00 in - - ()
Sea Level Pressure  
Sea Level Pressure 29.76 in    
Wind  
Wind Speed 14 mph (WSW)    
Max Wind Speed 28 mph    
Max Gust Speed 38 mph    
Visibility 10 miles    
Events      
Averages and records for this station are not official NWS values.
T = Trace of Precipitation, MM = Missing Value Source: NWS Daily Summary

Daily Weather History Graph

Daily Weather History Graph

Search for Another Location

Airport or City:

Trip Planner

Search our weather history database for the weather conditions in past years. The results will help you decide how hot, cold, wet, or windy it might be!

Date:

Astronomy

Feb. 20, 2014 Rise Set
Actual Time 7:07 AM CST 6:16 PM CST
Civil Twilight 6:42 AM CST 6:41 PM CST
Nautical Twilight 6:12 AM CST 7:11 PM CST
Astronomical Twilight 5:43 AM CST 7:40 PM CST
Moon 11:55 PM CST (2/20) 10:06 AM CST (2/20)
Length of Visible Light 11h 59m
Length of Day
11h 08m
Waning Gibbous, 70% of the Moon is Illuminated
Feb 20
Waning Gibbous
Feb 22
Last Quarter
Mar 1
New
Mar 8
First Quarter
Mar 16
Full

Hourly Weather History & Observations

Time (CST) Temp. Windchill Dew Point Humidity Pressure Visibility Wind Dir Wind Speed Gust Speed Precip Events Conditions
12:15 AM 66.6 °F - 61.2 °F 83% 29.57 in 10.0 mi South 16.1 mph 20.7 mph N/A   Scattered Clouds
12:35 AM 66.6 °F - 61.0 °F 82% 29.57 in 10.0 mi South 13.8 mph 25.3 mph N/A   Scattered Clouds
12:55 AM 66.4 °F - 61.0 °F 83% 29.57 in 10.0 mi South 11.5 mph 20.7 mph N/A   Scattered Clouds
1:15 AM 66.2 °F - 61.2 °F 84% 29.57 in 10.0 mi South 13.8 mph 21.9 mph N/A   Mostly Cloudy
1:35 AM 66.6 °F - 61.3 °F 83% 29.57 in 10.0 mi South 15.0 mph 26.5 mph N/A   Mostly Cloudy
1:55 AM 66.6 °F - 61.7 °F 84% 29.56 in 10.0 mi South 15.0 mph 25.3 mph N/A   Mostly Cloudy
2:15 AM 66.2 °F - 61.7 °F 85% 29.56 in 10.0 mi SSW 16.1 mph 23.0 mph N/A   Mostly Cloudy
2:35 AM 66.4 °F - 61.7 °F 85% 29.55 in 10.0 mi SSW 16.1 mph 24.2 mph N/A   Mostly Cloudy
2:55 AM 66.6 °F - 61.9 °F 85% 29.54 in 10.0 mi South 15.0 mph 21.9 mph N/A   Scattered Clouds
3:15 AM 66.6 °F - 61.9 °F 85% 29.53 in 10.0 mi South 18.4 mph 23.0 mph N/A   Scattered Clouds
3:35 AM 66.7 °F - 62.1 °F 85% 29.52 in 10.0 mi SSW 12.7 mph 25.3 mph N/A   Scattered Clouds
3:55 AM 66.9 °F - 62.1 °F 84% 29.52 in 10.0 mi SSW 18.4 mph 24.2 mph N/A   Clear
4:15 AM 67.1 °F - 62.2 °F 84% 29.51 in 10.0 mi SSW 18.4 mph 25.3 mph N/A   Clear
4:35 AM 67.1 °F - 62.2 °F 84% 29.51 in 10.0 mi SSW 21.9 mph 26.5 mph N/A   Clear
4:55 AM 66.6 °F - 62.6 °F 87% 29.51 in 10.0 mi SSW 19.6 mph 25.3 mph N/A   Clear
5:15 AM 66.4 °F - 62.4 °F 87% 29.52 in 10.0 mi SSW 15.0 mph 26.5 mph N/A   Scattered Clouds
5:35 AM 66.0 °F - 62.1 °F 87% 29.53 in 10.0 mi South 13.8 mph 26.5 mph N/A   Scattered Clouds
6:55 AM 66.2 °F - 60.8 °F 83% 29.57 in 10.0 mi SW 10.4 mph - N/A   Clear
7:55 AM 66.2 °F - 59.0 °F 78% 29.60 in 10.0 mi SW 16.1 mph 19.6 mph N/A   Clear
8:55 AM 68.0 °F - 46.4 °F 46% 29.68 in 10.0 mi West 21.9 mph 25.3 mph N/A   Haze
9:55 AM 60.8 °F - 39.2 °F 45% 29.76 in 7.0 mi WNW 24.2 mph 31.1 mph N/A   Haze
10:55 AM 60.8 °F - 37.4 °F 42% 29.82 in 10.0 mi WNW 27.6 mph 35.7 mph N/A   Haze
11:55 AM 59.0 °F - 37.4 °F 45% 29.87 in 10.0 mi NW 25.3 mph 36.8 mph N/A   Clear
12:55 PM 57.2 °F - 35.6 °F 44% 29.89 in 10.0 mi NW 24.2 mph 32.2 mph N/A   Clear
1:55 PM 59.0 °F - 35.6 °F 42% 29.92 in 10.0 mi NNW 15.0 mph 26.5 mph N/A   Clear
2:55 PM 59.0 °F - 33.8 °F 39% 29.93 in 10.0 mi NW 17.3 mph 24.2 mph N/A   Clear
3:55 PM 59.0 °F - 33.8 °F 39% 29.95 in 10.0 mi NW 20.7 mph 38.0 mph N/A   Clear
4:55 PM 57.2 °F - 30.2 °F 36% 29.96 in 10.0 mi NW 15.0 mph 25.3 mph N/A   Clear
6:55 PM 48.2 °F - 23.0 °F 37% 30.02 in 10.0 mi NW 5.8 mph - N/A   Clear
7:55 PM 48.2 °F - 23.0 °F 37% 30.05 in 10.0 mi Calm Calm - N/A   Clear
8:55 PM 42.8 °F 38.6 °F 23.0 °F 46% 30.08 in 10.0 mi NNW 6.9 mph - N/A   Clear
9:55 PM 44.6 °F 42.2 °F 21.2 °F 39% 30.01 in 10.0 mi North 4.6 mph - N/A   Clear
10:35 PM 43.5 °F - 22.5 °F 43% 30.11 in 10.0 mi Calm Calm - N/A   Clear
10:55 PM 37.4 °F - 24.8 °F 60% 30.10 in 10.0 mi Calm Calm - N/A   Clear
11:00 PM 39.2 °F - 22.8 °F 52% 30.10 in 10.0 mi Calm Calm - N/A   Clear
11:15 PM 39.6 °F 36.3 °F 22.5 °F 50% 30.09 in 10.0 mi North 4.6 mph - N/A   Clear
11:35 PM 36.7 °F - 24.3 °F 61% 30.10 in 10.0 mi Calm Calm - N/A   Clear
11:55 PM 34.9 °F - 28.8 °F 78% 30.10 in 10.0 mi Calm Calm - N/A   Clear